New Orleans, LA

4:29 AM CST on December 09, 2016 (GMT -0600)
Lakefront

Weather History for KNEW - January, 2014

Change the Weather History Date:

Friday, January 10, 2014

  Actual Average Record
Temperature  
Mean Temperature 59 °F 53 °F  
Max Temperature 67 °F 62 °F 81 °F (1974)
Min Temperature 50 °F 44 °F 16 °F (1962)
Degree Days  
Heating Degree Days 6 12  
Month to date heating degree days 196 120  
Since 1 July heating degree days 729 601  
Cooling Degree Days 0 1  
Month to date cooling degree days 0 10  
Year to date cooling degree days 0 10  
Growing Degree Days 7 (Base 50)    
Moisture  
Dew Point 54 °F    
Average Humidity 92    
Maximum Humidity 100    
Minimum Humidity 84    
Precipitation  
Precipitation 0.10 in 0.17 in 3.47 in (1991)
Month to date precipitation 0.57 1.63  
Year to date precipitation 0.57 1.63  
Snow  
Snow 0.00 in - - ()
Month to date snowfall 0.0  
Since 1 July snowfall 0.0  
Snow Depth 0.00 in    
Sea Level Pressure  
Sea Level Pressure 30.04 in    
Wind  
Wind Speed 8 mph (ESE)    
Max Wind Speed 18 mph    
Max Gust Speed 24 mph    
Visibility 2 miles    
Events Fog , Rain    
T = Trace of Precipitation, MM = Missing Value Source: NWS Daily Summary

Daily Weather History Graph

Daily Weather History Graph

Search for Another Location

Airport or City:

Trip Planner

Search our weather history database for the weather conditions in past years. The results will help you decide how hot, cold, wet, or windy it might be!

Date:

Astronomy

Jan. 10, 2014 Rise Set
Actual Time 6:57 AM CST 5:18 PM CST
Civil Twilight 6:31 AM CST 5:44 PM CST
Nautical Twilight 6:01 AM CST 6:13 PM CST
Astronomical Twilight 5:32 AM CST 6:42 PM CST
Moon 1:16 PM CST (1/10) 2:11 AM CST (1/10)
Length of Visible Light 11h 13m
Length of Day
10h 21m
Waxing Gibbous, 75% of the Moon is Illuminated
Jan 10
Waxing Gibbous
Jan 15
Full
Jan 23
Last Quarter
Jan 30
New
Feb 6
First Quarter

Hourly Weather History & Observations

Time (CST) Temp. Dew Point Humidity Pressure Visibility Wind Dir Wind Speed Gust Speed Precip Events Conditions
12:49 AM 50.0 °F 46.4 °F 87% 30.19 in 9.0 mi East 8.1 mph - N/A   Mostly Cloudy
12:50 AM 50.0 °F 46.9 °F 89% 30.17 in 9.0 mi East 8.1 mph - N/A   Mostly Cloudy
1:53 AM 50.0 °F 48.9 °F 96% 30.16 in 7.0 mi East 9.2 mph - N/A   Mostly Cloudy
2:06 AM 50.0 °F 48.9 °F 96% 30.17 in 6.0 mi East 9.2 mph - N/A   Scattered Clouds
2:25 AM 51.1 °F 48.9 °F 92% 30.17 in 5.0 mi East 8.1 mph - N/A   Mostly Cloudy
2:44 AM 51.1 °F 50.0 °F 96% 30.16 in 1.8 mi East 9.2 mph - N/A   Overcast
2:53 AM 51.1 °F 50.0 °F 96% 30.14 in 0.5 mi East 11.5 mph - N/A Fog Fog
3:53 AM 51.1 °F 50.0 °F 96% 30.13 in 0.8 mi East 10.4 mph - N/A   Mist
4:15 AM 51.1 °F 50.0 °F 96% 30.14 in 1.2 mi East 10.4 mph - N/A   Overcast
4:51 AM 51.8 °F 50.0 °F 94% 30.13 in 3.0 mi East 10.4 mph - N/A   Overcast
4:52 AM 51.1 °F 50.0 °F 96% 30.12 in 3.0 mi East 9.2 mph - N/A   Overcast
5:37 AM 51.1 °F 50.0 °F 96% 30.13 in 1.8 mi East 10.4 mph - N/A   Overcast
5:53 AM 51.1 °F 50.0 °F 96% 30.11 in 0.2 mi East 9.2 mph - N/A Fog Fog
6:23 AM 51.1 °F 50.0 °F 96% 30.13 in 0.5 mi East 10.4 mph - N/A Fog Fog
6:53 AM 51.1 °F 50.0 °F 96% 30.11 in 0.5 mi East 8.1 mph - N/A Fog Fog
7:10 AM 51.1 °F 50.0 °F 96% 30.13 in 1.5 mi East 8.1 mph - N/A   Overcast
7:33 AM 51.1 °F 50.0 °F 96% 30.14 in 2.5 mi East 8.1 mph - N/A   Overcast
7:53 AM 51.1 °F 50.0 °F 96% 30.12 in 2.0 mi ESE 8.1 mph - N/A   Overcast
8:00 AM 52.0 °F 51.1 °F 97% 30.14 in 2.0 mi East 9.2 mph - N/A   Overcast
8:53 AM 52.0 °F 51.1 °F 97% 30.13 in 2.0 mi ESE 10.4 mph - N/A   Overcast
9:00 AM 52.0 °F 51.1 °F 97% 30.15 in 0.5 mi ESE 9.2 mph - N/A Fog Fog
9:07 AM 52.0 °F 51.1 °F 97% 30.15 in 0.2 mi ESE 10.4 mph - N/A Fog Fog
9:43 AM 52.0 °F 52.0 °F 100% 30.15 in 0.5 mi East 8.1 mph - N/A Fog Fog
9:53 AM 53.1 °F 52.0 °F 96% 30.12 in 0.5 mi ESE 9.2 mph - N/A Fog Fog
10:01 AM 53.1 °F 52.0 °F 96% 30.14 in 0.2 mi East 9.2 mph - N/A Fog Fog
10:18 AM 53.1 °F 52.0 °F 96% 30.13 in 0.8 mi East 9.2 mph - N/A   Mist
10:24 AM 53.1 °F 52.0 °F 96% 30.13 in 2.0 mi East 10.4 mph - N/A   Overcast
10:32 AM 53.1 °F 52.0 °F 96% 30.13 in 4.0 mi East 9.2 mph - N/A   Overcast
10:53 AM 54.0 °F 53.1 °F 97% 30.09 in 5.0 mi ESE 8.1 mph - N/A   Overcast
11:04 AM 54.0 °F 52.0 °F 93% 30.11 in 1.8 mi ESE 10.4 mph - N/A   Overcast
11:26 AM 54.0 °F 53.1 °F 97% 30.09 in 3.0 mi East 5.8 mph - N/A   Overcast
11:53 AM 55.9 °F 52.0 °F 87% 30.05 in 6.0 mi East 8.1 mph - N/A   Overcast
12:09 PM 57.0 °F 53.1 °F 87% 30.05 in 7.0 mi East 6.9 mph - N/A   Overcast
12:53 PM 59.0 °F 55.0 °F 87% 30.00 in 9.0 mi ESE 11.5 mph - N/A   Overcast
1:43 PM 57.9 °F 54.0 °F 87% 29.99 in 8.0 mi ESE 10.4 mph - N/A   Overcast
1:53 PM 57.9 °F 54.0 °F 87% 29.97 in 6.0 mi ESE 10.4 mph - N/A   Overcast
2:03 PM 57.9 °F 54.0 °F 87% 29.99 in 8.0 mi ESE 8.1 mph - N/A   Overcast
2:35 PM 59.0 °F 57.0 °F 93% 29.96 in 2.0 mi ESE 8.1 mph - N/A   Overcast
2:53 PM 59.0 °F 55.9 °F 90% 29.95 in 3.0 mi ESE 13.8 mph - N/A   Overcast
3:53 PM 57.9 °F 55.9 °F 93% 29.94 in 3.0 mi ESE 11.5 mph - N/A   Overcast
4:00 PM 57.9 °F 55.9 °F 93% 29.96 in 2.0 mi ESE 10.4 mph - N/A   Overcast
4:13 PM 57.9 °F 55.9 °F 93% 29.96 in 1.5 mi ESE 10.4 mph - N/A   Overcast
4:31 PM 57.0 °F 55.9 °F 96% 29.96 in 0.8 mi ESE 8.1 mph - N/A   Overcast
4:53 PM 57.0 °F 55.9 °F 96% 29.94 in 0.2 mi ESE 9.2 mph - N/A Fog Fog
5:26 PM 55.9 °F 55.0 °F 97% 29.95 in 0.5 mi SE 5.8 mph - N/A Fog Fog
5:53 PM 55.9 °F 55.0 °F 97% 29.94 in 0.5 mi ESE 8.1 mph - N/A Fog Fog
6:05 PM 55.9 °F 55.0 °F 97% 29.96 in 0.2 mi SE 4.6 mph - N/A Fog Fog
6:53 PM 55.9 °F 55.0 °F 97% 29.94 in 0.2 mi SE 3.5 mph - N/A Fog Fog
7:10 PM 55.9 °F 55.0 °F 97% 29.96 in 0.5 mi SE 3.5 mph - N/A Fog Fog
7:29 PM 57.0 °F 55.9 °F 96% 29.97 in 1.2 mi SE 4.6 mph - N/A   Overcast
7:53 PM 55.9 °F 55.0 °F 97% 29.94 in 1.2 mi SE 5.8 mph - N/A   Overcast
8:53 PM 57.9 °F 57.0 °F 97% 29.93 in 1.2 mi SE 10.4 mph - 0.01 in Rain Light Rain
9:12 PM 59.0 °F 57.9 °F 96% 29.94 in 1.2 mi SSE 9.2 mph - 0.02 in Rain Rain
9:31 PM 60.1 °F 59.0 °F 96% 29.95 in 1.0 mi South 15.0 mph - 0.16 in Rain Heavy Rain
9:38 PM 62.1 °F 61.0 °F 96% 29.93 in 1.5 mi SSE 13.8 mph - 0.19 in Rain Light Rain
9:41 PM 62.1 °F 61.0 °F 96% 29.93 in 3.0 mi SSE 15.0 mph - 0.19 in Rain Light Rain
9:53 PM 62.1 °F 61.0 °F 96% 29.92 in 3.0 mi SSE 10.4 mph - 0.19 in   Overcast
10:00 PM 62.1 °F 61.0 °F 96% 29.93 in 2.0 mi SSE 11.5 mph - N/A   Overcast
10:12 PM 63.0 °F 62.1 °F 97% 29.93 in 1.5 mi SSE 12.7 mph - N/A   Overcast
10:50 PM 64.4 °F 64.4 °F 100% 29.92 in 0.5 mi South 11.5 mph - N/A Fog Fog
10:53 PM 64.9 °F 64.0 °F 97% 29.90 in 0.5 mi South 11.5 mph - N/A Fog Fog
11:53 PM 64.9 °F 64.0 °F 97% 29.89 in 0.2 mi South 12.7 mph - N/A Fog Fog